Miscellaneous Hydrologic Data Report
Issued by NWS (Baltimore/Washington) Sterling, VA
1 of 49 available versions  First Miscellaneous Hydrologic Data Report Previous Miscellaneous Hydrologic Data Report  Print this page Close this Window


000
ASUS41 KLWX 311510
RWRLWX

REGIONAL WEATHER ROUNDUP
NATIONAL WEATHER SERVICE BALTIMORE MD/WASHINGTON DC
1100 AM EDT FRI JUL 31 2015

Note: "FAIR" indicates few or no clouds below 12,000 feet
with no significant weather and/or obstructions to visibility.
 TC=TEMPERATURE CELSIUS

 * =Non NWS site. Station does not report precipitation (e.g. rain,
    snow, etc.), thunder, or fog.

DCZ001-MDZ009-015-VAZ040>042-051-053>054-311600-
WASHINGTON METRO

CITY           SKY/WX    TMP DP  RH WIND       PRES   REMARKS
WASHINGTON NAT SUNNY     87  63  44 N9        29.95F
DULLES         SUNNY     82  62  50 NW8       29.97S
ANDREWS AFB    SUNNY     84  60  43 W8        29.95S
FT BELVOIR     SUNNY     85  61  44 W7        29.95S
QUANTICO         N/A     86  62  44 W5        29.92F
COLLEGE PARK*  SUNNY     82  61  47 W5        29.94S
LEESBURG*      SUNNY     82  66  57 NW7       29.98S
MANASSAS*      SUNNY     82  63  51 NW3       29.97S
GAITHERSBURG*  SUNNY     81  64  57 NW9       30.00S

$$

MDZ006>007-011-014-311600-
BALTIMORE METRO

CITY           SKY/WX    TMP DP  RH WIND       PRES   REMARKS
BWI AIRPORT    MOSUNNY   84  62  47 W8        29.94S
MD SCIENCE CTR   N/A     84  59  42 MISG      29.93F
MARTIN STATE   SUNNY     84  64  51 W8        29.94F
ANNAPOLIS      SUNNY     83  62  49 NW7       29.94R
FORT MEADE*    SUNNY     81  63  54 NW8       29.97S

$$

MDZ012-015-019>023-311600-
MARYLAND EASTERN SHORE

CITY           SKY/WX    TMP DP  RH WIND       PRES   REMARKS
OCEAN CITY     SUNNY     85  59  41 NW13      29.92S
SALISBURY      SUNNY     84  61  45 N9        29.93S
BAY BRIDGE AP*   N/A     81  61  50 NW5       29.94S
CAMBRIDGE*     SUNNY     82  57  42 N5        29.93S
EASTON*        SUNNY     84  64  51 NW6       29.97S

$$

MDZ017>025-311600-
SOUTHERN MARYLAND

CITY           SKY/WX    TMP DP  RH WIND       PRES   REMARKS
PATUXENT RIVER MOSUNNY   83  65  54 NW6       29.94F
ST INIGOES     SUNNY     83  64  52 VRB5      29.94S
LEONARDTOWN*   SUNNY     81  59  47 CALM      29.97R

$$

MDZ003>005-311600-
NORTH CENTRAL MARYLAND

CITY           SKY/WX    TMP DP  RH WIND       PRES   REMARKS
FREDERICK*     SUNNY     86  64  48 N6        29.98F
HAGERSTOWN APT SUNNY     83  58  42 MISG      29.97F
WESTMINSTER*   SUNNY     81  64  57 W3        29.97S

$$

MDZ501>502-311600-
WESTERN MARYLAND

CITY           SKY/WX    TMP DP  RH WIND       PRES   REMARKS
OAKLAND*       MOSUNNY   70  68  94 NW8       30.10S
CUMBERLAND*    SUNNY     81  63  54 CALM      30.03F

$$

VAZ025>031-311600-
SHENANDOAH VALLEY

CITY           SKY/WX    TMP DP  RH WIND       PRES   REMARKS
WINCHESTER*    SUNNY     84  59  42 NW9       29.99S
FRONT ROYAL*   FAIR      79  61  53 CALM      29.99S
LURAY*         FAIR      82  59  44 CALM      30.01S
NEW MARKET*    FAIR      78  63  59 CALM      30.00S
STAUNTON*      SUNNY     82  57  42 N7        30.06S
WAYNESBORO*    FAIR      77  56  48 N9G16     30.05S

$$

WVZ021-048>050-054>055-311600-
EASTERN WEST VIRGINIA PANHANDLE

CITY           SKY/WX    TMP DP  RH WIND       PRES   REMARKS
MARTINSBURG    SUNNY     81  60  48 VRB5      29.98S
PETERSBURG*    SUNNY    N/A N/A N/A CALM      30.02F

$$

VAZ036>039-050-311600-
CENTRAL FOOTHILLS

CITY           SKY/WX    TMP DP  RH WIND       PRES   REMARKS
CHARLOTTESVILL SUNNY     82  59  45 N6        30.00S
CULPEPER*      SUNNY     81  64  56 N6        29.99S
ORANGE*        SUNNY     82  61  47 CALM      30.00S
GORDONSVILLE*  FAIR      82  63  51 CALM      29.99S
WARRENTON*     FAIR      85  66  53 NW7       29.97S

$$

VAZ055>057-311600-
NORTH AND CENTRAL PIEDMONT

CITY           SKY/WX    TMP DP  RH WIND       PRES   REMARKS
FREDERICKSBRG* SUNNY     85  64  48 NW7       29.96S
STAFFORD*      SUNNY     82  62  50 NW8       30.01R

$$

NCZ024-NYZ072-PAZ021-071-VAZ022-071-311600-
OTHER REGIONAL OBSERVATIONS

CITY           SKY/WX    TMP DP  RH WIND       PRES   REMARKS
NEW YORK CITY  SUNNY     83  58  42 MISG      29.91S
PHILADELPHIA   SUNNY     85  60  42 NW8       29.91S
PITTSBURGH     SUNNY     80  57  45 W10       30.00F
ROANOKE        MOSUNNY   81  54  39 NE10      30.07S
RICHMOND       MOSUNNY   85  63  47 NE9       29.97S
RALEIGH        MOSUNNY   83  63  50 NE10G17   29.98F

$$

ANZ530>537-311600-
MARINE OBSERVATIONS

STATION/POSITION TIME  TEMP    WIND        PRES
                       AIR SEA DIR/SP/G
                 (UTC) (F)     (DEG/KT/KT) (MB)
THOMAS PT LIGHT  NOT AVBL
BALT KEY BRIDGE  1400   81     290/  9/ 10 1013.5F
COVE POINT       1400   77     350/  9/ 11 1014.6S
LEWISETTA        1400   79 83  360/  6/  7 1013.7F
SOLOMONS ISLAND  1400      82                N/A
PINEY POINT      1400          340/  5/  6   N/A

$$


Close this window


The National Weather Service prepares its forecasts and other services in collaboration with agencies like the US Geological Survey, US Bureau of Reclamation, US Army Corps of Engineers, Natural Resource Conservation Service, National Park Service, ALERT Users Group, Bureau of Indian Affairs, and many state and local emergency managers across the country. For details, please click here.

National Weather Service
(Baltimore/Washington) Sterling Weather Forecast Office
43858 Weather Service Rd.
Sterling, VA 20166
(703) 996-2200
Page last modified: 31-Jul-2015 3:10 PM
Disclaimer
Credits
Glossary
Privacy Policy
About Us
Career Opportunities